Jackson, MS

11:48 PM CDT on June 26, 2017 (GMT -0500)
Jackson-Evers International

Weather History for KJAN - January, 2015

Change the Weather History Date:

Monday, January 26, 2015

  Actual Average Record
Temperature  
Mean Temperature 49 °F 46 °F  
Max Temperature 56 °F 57 °F 81 °F (1952)
Min Temperature 41 °F 35 °F 1 °F (1940)
Degree Days  
Heating Degree Days 16 19  
Month to date heating degree days 542 513  
Since 1 July heating degree days 1470 1463  
Cooling Degree Days 0 0  
Month to date cooling degree days 0 0  
Year to date cooling degree days 0 0  
Moisture  
Dew Point 33 °F    
Average Humidity 54    
Maximum Humidity 70    
Minimum Humidity 38    
Precipitation  
Precipitation 0.00 in 0.17 in 3.56 in (1996)
Month to date precipitation 4.72 4.07  
Year to date precipitation 4.72 4.07  
Sea Level Pressure  
Sea Level Pressure 30.06 in    
Wind  
Wind Speed 8 mph (WNW)    
Max Wind Speed 18 mph    
Max Gust Speed 25 mph    
Visibility 10 miles    
Events      
T = Trace of Precipitation, MM = Missing Value Source: NWS Daily Summary

Daily Weather History Graph

Daily Weather History Graph

Search for Another Location

Airport or City:

Trip Planner

Search our weather history database for the weather conditions in past years. The results will help you decide how hot, cold, wet, or windy it might be!

Date:

Astronomy

Jan. 26, 2015 Rise Set
Actual Time 6:58 AM CST 5:28 PM CST
Civil Twilight 6:32 AM CST 5:54 PM CST
Nautical Twilight 6:02 AM CST 6:23 PM CST
Astronomical Twilight 5:33 AM CST 6:52 PM CST
Moon 11:06 AM CST (1/26) No Moon Set
Length of Visible Light 11h 22m
Length of Day
10h 29m
Waxing Crescent, 45% of the Moon is Illuminated
Jan 26
Waxing Crescent
Jan 26
First Quarter
Feb 3
Full
Feb 11
Last Quarter
Feb 18
New

Hourly Weather History & Observations

Time (CST) Temp. Windchill Dew Point Humidity Pressure Visibility Wind Dir Wind Speed Gust Speed Precip Events Conditions
12:54 AM 48.0 °F - 33.1 °F 56% 29.99 in 10.0 mi NW 12.7 mph 21.9 mph N/A   Clear
1:54 AM 46.0 °F 41.9 °F 33.1 °F 61% 29.99 in 10.0 mi NW 8.1 mph - N/A   Clear
2:54 AM 46.9 °F - 34.0 °F 61% 30.01 in 10.0 mi NW 11.5 mph - N/A   Mostly Cloudy
3:54 AM 46.9 °F - 34.0 °F 61% 30.02 in 10.0 mi NW 6.9 mph - N/A   Overcast
4:54 AM 46.9 °F - 34.0 °F 61% 30.04 in 10.0 mi NW 12.7 mph 20.7 mph N/A   Overcast
5:54 AM 46.0 °F 39.6 °F 34.0 °F 63% 30.06 in 10.0 mi NW 15.0 mph 20.7 mph N/A   Overcast
6:22 AM 46.0 °F 40.6 °F 34.0 °F 63% 30.05 in 10.0 mi NW 11.5 mph 19.6 mph N/A   Mostly Cloudy
6:54 AM 45.0 °F 39.3 °F 34.0 °F 65% 30.08 in 10.0 mi NW 11.5 mph - N/A   Mostly Cloudy
7:54 AM 45.0 °F 38.9 °F 35.1 °F 68% 30.10 in 10.0 mi NNW 12.7 mph - N/A   Overcast
8:54 AM 45.0 °F 40.1 °F 34.0 °F 65% 30.13 in 10.0 mi NNW 9.2 mph - N/A   Overcast
9:54 AM 46.0 °F 40.6 °F 34.0 °F 63% 30.15 in 10.0 mi NW 11.5 mph - N/A   Mostly Cloudy
10:54 AM 46.9 °F - 34.0 °F 61% 30.16 in 10.0 mi WNW 8.1 mph - N/A   Mostly Cloudy
11:54 AM 48.9 °F - 33.1 °F 54% 30.14 in 10.0 mi NNW 9.2 mph - N/A   Mostly Cloudy
12:01 PM 50.0 °F - 34.0 °F 54% 30.13 in 10.0 mi Variable 6.9 mph - N/A   Scattered Clouds
12:54 PM 52.0 °F - 33.1 °F 49% 30.11 in 10.0 mi WNW 9.2 mph - N/A   Clear
1:54 PM 54.0 °F - 30.9 °F 41% 30.07 in 10.0 mi NW 8.1 mph - N/A   Clear
2:54 PM 55.0 °F - 30.9 °F 40% 30.06 in 10.0 mi WNW 6.9 mph - N/A   Clear
3:54 PM 55.9 °F - 30.9 °F 39% 30.05 in 10.0 mi West 4.6 mph - N/A   Clear
4:54 PM 54.0 °F - 32.0 °F 43% 30.05 in 10.0 mi West 5.8 mph - N/A   Clear
5:54 PM 48.9 °F - 30.0 °F 48% 30.04 in 10.0 mi Calm Calm - N/A   Clear
6:54 PM 43.0 °F 38.8 °F 33.1 °F 68% 30.03 in 10.0 mi SW 6.9 mph - N/A   Clear
7:54 PM 45.0 °F 42.6 °F 33.1 °F 63% 30.04 in 10.0 mi SW 4.6 mph - N/A   Clear
8:54 PM 44.1 °F 41.5 °F 33.1 °F 65% 30.04 in 10.0 mi SSW 4.6 mph - N/A   Clear
9:54 PM 43.0 °F 40.3 °F 33.1 °F 68% 30.05 in 10.0 mi SSW 4.6 mph - N/A   Clear
10:54 PM 42.1 °F 37.7 °F 34.0 °F 73% 30.04 in 10.0 mi SSW 6.9 mph - N/A   Clear
11:54 PM 44.1 °F 42.5 °F 34.0 °F 68% 30.03 in 10.0 mi SSW 3.5 mph - N/A   Clear